Wind_Speed
51 51 50 49 50 50 49 49 50 49 48 47 48 48 47 47 48 48 48 48 47 47 48 48 48 48 48 48 47 47 46 46 45 44 43 42 42 41
53 53 52 51 51 51 50 50 50 50 49 48 49 49 49 48 48 49 50 50 49 49 49 49 49 49 50 50 50 49 48 47 46 45 44 44 44 43
53 53 53 53 53 52 52 52 52 51 51 50 51 50 49 49 50 51 51 51 50 51 51 50 50 50 51 51 52 51 50 49 48 48 46 47 46 46
53 53 53 53 54 53 53 53 53 53 53 52 52 52 52 51 51 52 52 53 52 52 52 52 52 52 52 53 54 53 52 51 52 51 51 50 49 48
54 54 55 55 54 54 54 54 54 54 54 53 53 53 54 53 53 53 53 53 53 54 54 54 54 54 54 55 55 55 55 54 53 53 53 52 51 50
56 55 56 56 55 55 55 55 55 55 55 54 54 54 55 54 54 53 53 54 54 54 54 54 54 54 54 55 55 56 57 56 55 55 55 55 53 53
56 56 56 56 56 56 55 55 55 55 55 55 55 55 55 55 55 55 54 54 54 54 54 54 54 54 55 55 56 56 56 56 56 56 57 56 56 55
57 57 57 57 56 56 56 56 55 55 55 55 54 55 55 55 56 55 55 54 54 54 54 54 54 54 54 54 56 57 57 57 57 57 57 57 57 56
57 57 57 56 56 56 56 56 56 55 55 55 54 54 54 55 56 56 56 56 55 55 55 54 54 54 54 54 55 56 57 58 59 59 58 58 57 57
57 56 56 56 56 56 56 56 55 54 54 55 54 54 54 55 56 57 57 57 57 57 57 56 56 56 56 55 55 56 57 58 58 59 59 59 58 58
56 56 55 55 55 55 56 55 54 54 54 54 54 54 55 56 57 58 57 57 56 56 57 57 57 57 56 56 57 57 58 58 58 59 59 59 59 60
55 55 55 55 55 55 55 54 54 53 53 54 54 54 54 55 55 56 56 55 55 54 54 55 55 56 56 56 57 57 58 58 58 58 59 59 60 60
54 54 54 54 53 53 54 53 53 53 53 53 52 52 54 54 54 53 53 53 53 52 52 53 53 55 56 56 55 56 57 57 58 59 59 60 61 62
52 52 53 53 53 53 53 53 53 53 53 52 51 52 52 52 52 52 52 52 52 51 51 52 52 53 54 55 54 54 56 57 59 59 59 61 62 62
51 51 51 52 53 52 52 53 53 53 52 51 50 51 51 51 51 51 51 51 51 51 52 52 51 51 51 52 53 54 55 56 58 59 60 61 61 61
50 50 50 50 51 51 52 53 53 53 52 51 51 51 51 51 51 50 50 49 50 50 50 50 50 50 50 51 52 53 54 55 56 58 59 59 59 59
49 49 49 49 50 50 51 51 51 52 52 51 51 50 50 50 49 49 49 49 50 50 50 50 50 51 51 51 51 51 52 52 53 55 57 57 57 58
47 48 48 48 49 49 49 49 49 49 49 50 50 50 49 49 49 49 50 50 50 50 50 50 51 51 51 51 51 51 51 52 53 54 56 56 56 56
45 47 47 47 47 47 47 47 47 47 47 48 49 49 49 49 48 48 48 49 50 50 50 50 51 51 51 50 49 51 51 51 51 52 53 54 54 54
43 45 46 47 47 47 47 47 47 47 47 48 48 48 48 48 48 48 48 48 49 49 50 49 49 50 50 49 49 49 50 50 50 50 51 51 51 51
41 43 45 46 47 48 48 48 48 48 48 48 48 47 47 47 48 48 48 48 48 48 48 48 48 48 49 49 48 47 48 49 49 48 48 49 49 48
40 41 42 44 45 46 47 48 48 48 47 47 47 46 47 47 47 48 48 48 47 47 47 47 48 47 47 46 45 44 44 45 46 46 46 46 46 46
38 39 40 41 43 44 45 46 47 46 46 45 45 44 45 45 46 46 46 46 46 46 47 47 47 47 46 45 44 43 42 43 43 43 43 44 44 44
Wind_Direction
260 260 259 260 259 258 259 259 258 256 255 255 255 255 255 254 253 252 252 252 253 253 253 253 253 253 252 250 250 252 252 253 254 255 256 256 257 256
260 260 259 260 259 258 258 258 257 256 255 255 255 256 255 254 253 252 252 252 254 255 255 255 255 254 252 251 250 250 251 252 253 253 255 256 257 257
260 260 259 259 258 258 258 258 256 256 255 255 254 255 255 254 254 254 253 253 254 255 256 257 256 256 254 252 250 250 250 251 252 253 255 256 257 258
260 260 259 258 258 258 258 258 257 256 255 255 254 254 254 255 255 254 254 255 255 256 257 257 256 256 254 252 250 250 250 251 252 253 255 256 257 258
260 260 259 258 258 258 259 258 256 256 255 255 254 254 255 255 255 256 256 256 257 257 258 258 257 256 254 253 251 250 251 251 252 253 254 255 256 257
260 260 259 259 258 258 259 258 257 256 256 255 255 254 255 255 256 256 256 257 258 258 258 258 257 256 255 254 252 252 252 253 252 253 254 255 256 257
260 260 259 258 258 258 258 258 257 256 256 255 255 254 254 255 256 257 257 257 258 258 258 258 258 257 256 254 253 252 253 253 253 253 254 255 257 258
259 259 259 258 258 258 258 258 257 257 256 255 255 255 255 255 256 257 257 257 257 257 258 258 258 258 257 256 253 252 252 253 253 254 255 256 258 259
260 259 259 258 258 258 258 258 257 257 255 254 254 255 255 256 257 257 257 257 258 258 257 258 258 258 257 256 255 253 253 253 254 255 256 257 259 259
259 259 258 257 257 257 257 257 257 256 255 254 254 255 256 257 258 257 257 258 258 258 258 258 257 258 257 256 256 254 254 254 255 256 257 259 259 260
259 258 257 256 256 257 257 257 256 256 256 255 254 255 256 258 258 258 258 259 259 258 258 259 258 257 257 257 257 255 254 256 256 257 258 259 260 261
258 257 256 255 255 256 256 256 256 256 256 255 255 256 257 258 259 258 259 259 258 258 258 258 258 258 257 257 257 256 256 256 257 258 259 259 260 261
257 255 254 254 254 254 254 254 255 256 256 257 255 256 258 259 259 259 259 258 258 258 258 259 259 259 259 258 257 257 257 257 258 259 260 260 261 261
256 254 254 253 252 253 254 254 255 256 256 256 256 256 257 258 259 258 258 258 257 258 259 260 261 261 261 259 258 257 258 258 258 260 260 261 262 262
255 254 253 252 252 253 253 253 254 255 255 256 257 257 257 258 258 258 258 257 257 258 259 260 261 261 261 260 259 259 260 259 259 260 261 262 263 263
255 254 253 252 252 253 253 253 254 255 255 256 257 257 256 256 257 257 257 257 257 258 259 260 260 261 261 261 261 261 261 261 261 262 262 262 263 263
256 254 253 252 252 253 254 254 255 255 254 255 255 255 254 255 255 256 257 257 257 258 258 259 260 261 261 262 262 262 262 263 263 263 263 263 263 263
255 254 253 253 253 254 254 254 254 254 253 253 253 253 253 254 255 256 257 257 258 258 259 260 260 260 260 260 262 263 263 264 265 264 265 264 263 264
256 254 253 253 253 253 253 254 253 253 252 252 252 252 253 253 254 255 257 257 258 259 260 260 260 261 260 260 262 264 265 264 264 265 265 264 264 264
257 255 254 253 253 253 253 253 253 253 253 252 252 252 253 253 255 256 258 258 259 260 260 260 261 261 261 262 262 263 264 265 265 265 264 264 264 264
258 257 256 254 253 253 253 254 254 253 253 252 252 252 252 254 256 257 259 259 259 259 259 260 261 261 262 262 262 262 263 264 265 264 264 264 264 264
260 260 257 255 253 253 253 253 253 252 252 252 252 252 253 254 256 257 258 258 257 258 259 260 260 261 262 263 263 263 262 262 263 264 265 266 266 265
262 261 258 256 254 253 252 252 252 251 251 251 251 252 253 254 256 257 257 257 257 258 259 259 259 260 261 262 263 263 263 263 264 265 266 267 267 266
Height
5650 5651 5653 5654 5655 5656 5657 5659 5661 5663 5666 5668 5669 5671 5672 5675 5677 5680 5683 5686 5688 5691 5693 5695 5698 5700 5703 5706 5709 5711 5714 5716 5718 5720 5722 5723 5725 5727
5636 5637 5638 5640 5641 5642 5644 5645 5646 5649 5652 5655 5657 5658 5660 5662 5664 5666 5669 5672 5674 5677 5680 5682 5685 5687 5690 5693 5696 5698 5701 5704 5706 5708 5710 5712 5713 5715
5621 5622 5623 5625 5627 5628 5629 5631 5632 5635 5638 5642 5644 5646 5647 5649 5651 5653 5655 5658 5660 5663 5665 5668 5671 5673 5676 5679 5682 5685 5688 5691 5693 5696 5697 5699 5701 5703
5606 5607 5608 5610 5612 5614 5615 5616 5618 5620 5623 5627 5630 5632 5634 5635 5637 5640 5642 5644 5646 5648 5651 5653 5656 5659 5662 5664 5668 5671 5674 5677 5680 5682 5685 5687 5689 5690
5591 5592 5593 5595 5597 5598 5600 5602 5603 5606 5608 5611 5615 5617 5619 5621 5623 5625 5627 5629 5632 5634 5636 5638 5641 5643 5646 5649 5653 5656 5659 5663 5666 5668 5670 5672 5674 5676
5575 5576 5578 5579 5581 5583 5585 5586 5588 5590 5593 5596 5599 5602 5605 5606 5608 5610 5612 5614 5617 5619 5620 5623 5625 5627 5631 5634 5638 5641 5644 5647 5650 5653 5655 5658 5660 5662
5559 5560 5562 5564 5565 5567 5569 5571 5572 5575 5577 5580 5583 5587 5589 5591 5593 5595 5597 5599 5601 5603 5605 5608 5610 5613 5615 5618 5621 5625 5628 5632 5635 5638 5640 5643 5645 5647
5543 5544 5546 5548 5549 5551 5553 5555 5557 5559 5562 5564 5568 5571 5574 5576 5578 5579 5582 5584 5587 5590 5590 5592 5594 5596 5599 5603 5606 5609 5613 5616 5619 5622 5625 5627 5629 5631
5526 5528 5530 5532 5533 5535 5537 5539 5541 5543 5546 5549 5552 5556 5559 5562 5563 5565 5566 5568 5571 5573 5574 5577 5579 5581 5584 5587 5590 5594 5597 5600 5603 5606 5609 5611 5613 5615
5510 5512 5514 5516 5518 5519 5521 5523 5526 5528 5531 5534 5539 5542 5543 5545 5546 5548 5549 5552 5554 5556 5558 5561 5564 5566 5568 5571 5574 5578 5581 5584 5587 5590 5593 5595 5597 5599
5493 5495 5497 5500 5503 5504 5506 5509 5511 5514 5515 5518 5522 5525 5527 5529 5530 5531 5533 5535 5538 5540 5541 5544 5547 5550 5553 5556 5559 5562 5565 5568 5571 5574 5577 5579 5581 5582
5478 5480 5482 5485 5487 5488 5490 5493 5496 5500 5501 5504 5507 5510 5512 5513 5514 5515 5517 5519 5522 5525 5527 5528 5530 5532 5537 5541 5543 5546 5549 5552 5555 5558 5560 5562 5564 5565
5461 5464 5467 5470 5472 5474 5476 5479 5483 5485 5487 5489 5492 5494 5496 5498 5499 5500 5502 5504 5507 5510 5513 5513 5515 5517 5520 5525 5528 5530 5533 5536 5538 5541 5543 5545 5547 5548
5446 5449 5452 5455 5457 5459 5462 5465 5468 5469 5471 5474 5477 5479 5481 5483 5485 5486 5488 5489 5492 5496 5498 5498 5501 5502 5504 5508 5512 5516 5517 5519 5522 5524 5526 5528 5530 5531
5430 5434 5437 5439 5442 5444 5447 5450 5452 5454 5456 5459 5462 5465 5467 5469 5471 5472 5473 5475 5478 5481 5483 5484 5486 5488 5489 5493 5497 5500 5502 5504 5505 5507 5509 5511 5513 5514
5416 5419 5422 5424 5426 5430 5432 5434 5437 5439 5442 5445 5448 5451 5453 5455 5457 5458 5460 5462 5464 5467 5469 5470 5472 5474 5476 5479 5481 5484 5486 5487 5489 5490 5491 5493 5495 5497
5401 5404 5407 5410 5412 5415 5418 5420 5422 5425 5427 5430 5433 5436 5438 5441 5443 5445 5447 5449 5451 5454 5456 5457 5458 5460 5462 5464 5467 5469 5471 5472 5473 5473 5474 5476 5479 5480
5386 5389 5393 5396 5399 5401 5404 5406 5408 5410 5413 5416 5419 5421 5424 5427 5429 5431 5433 5436 5438 5441 5442 5444 5445 5446 5448 5451 5453 5455 5456 5457 5457 5457 5458 5460 5463 5464
5372 5376 5379 5382 5385 5387 5390 5392 5395 5397 5399 5402 5405 5408 5410 5413 5415 5418 5420 5422 5424 5426 5428 5429 5430 5432 5434 5437 5441 5440 5440 5441 5442 5443 5443 5444 5446 5448
5359 5362 5365 5368 5371 5373 5376 5378 5381 5383 5385 5388 5391 5394 5397 5399 5402 5404 5406 5408 5410 5412 5413 5415 5416 5418 5420 5423 5425 5427 5426 5426 5427 5428 5429 5429 5430 5432
5347 5349 5351 5354 5356 5359 5362 5364 5366 5369 5372 5375 5377 5380 5383 5385 5388 5390 5393 5395 5396 5397 5399 5402 5403 5404 5406 5407 5410 5412 5413 5412 5412 5413 5414 5414 5415 5416
5335 5337 5338 5340 5343 5345 5347 5350 5352 5355 5358 5361 5364 5367 5369 5372 5374 5377 5379 5381 5382 5384 5386 5388 5389 5390 5391 5393 5395 5397 5398 5399 5398 5398 5399 5400 5400 5402
5323 5324 5326 5327 5329 5331 5334 5336 5339 5341 5345 5348 5351 5354 5356 5359 5361 5363 5365 5367 5369 5371 5372 5374 5375 5376 5377 5379 5381 5383 5384 5385 5385 5386 5387 5387 5387 5388